,,Stat5,,Stat1,,Stat2,,Stat3,,Stat4,,Wind1,,Wind1,
time,status,PA1M_AVG,status,PR1M_SUM,status,RH1M_AVG,status,SR1M_AVG,status,TA1M_AVG,status,W1dAve1m,status,W1sAve1m,
2003-08-19, 00:00:00,VALID,917.475,VALID,0,VALID,98.8126,VALID,0.0339617,VALID,18.5411,VALID,142,VALID,0.997944,
2003-08-19, 00:01:00,VALID,917.464,VALID,0,VALID,98.7795,VALID,0.0169808,VALID,18.5351,VALID,126,VALID,0.936899,
2003-08-19, 00:02:00,VALID,917.459,VALID,0,VALID,98.721,VALID,0.0169808,VALID,18.5292,VALID,136,VALID,0.665665,
2003-08-19, 00:03:00,VALID,917.455,VALID,0,VALID,98.4934,VALID,0,VALID,18.5128,VALID,135,VALID,1.20371,
2003-08-19, 00:04:00,VALID,917.44,VALID,0,VALID,98.2963,VALID,0,VALID,18.4999,VALID,139,VALID,0.921484,
2003-08-19, 00:05:00,VALID,917.406,VALID,0,VALID,98.1068,VALID,0,VALID,18.5165,VALID,132,VALID,0.971284,
2003-08-19, 00:06:00,VALID,917.386,VALID,0,VALID,97.939,VALID,0.0169808,VALID,18.5061,VALID,138,VALID,0.795641,
2003-08-19, 00:07:00,VALID,917.376,VALID,0,VALID,97.7711,VALID,0,VALID,18.5192,VALID,129,VALID,0.938528,
2003-08-19, 00:08:00,VALID,917.366,VALID,0,VALID,97.5944,VALID,0.0169808,VALID,18.5255,VALID,134,VALID,0.922676,
2003-08-19, 00:09:00,VALID,917.343,VALID,0,VALID,97.5244,VALID,0,VALID,18.5418,VALID,123,VALID,0.736979,
2003-08-19, 00:10:00,VALID,917.337,VALID,0,VALID,97.3871,VALID,0,VALID,18.5545,VALID,118,VALID,0.788862,
2003-08-19, 00:11:00,VALID,917.323,VALID,0,VALID,97.1264,VALID,0.0169808,VALID,18.5451,VALID,148,VALID,1.14453,
2003-08-19, 00:12:00,VALID,917.312,VALID,0,VALID,97.0336,VALID,0.0339617,VALID,18.5478,VALID,144,VALID,1.11078,
2003-08-19, 00:13:00,VALID,917.298,VALID,0,VALID,96.717,VALID,0.0169808,VALID,18.5548,VALID,139,VALID,1.80037,
2003-08-19, 00:14:00,VALID,917.288,VALID,0,VALID,96.5924,VALID,0,VALID,18.5448,VALID,140,VALID,1.36128,
2003-08-19, 00:15:00,VALID,917.29,VALID,0,VALID,96.7233,VALID,0.0169808,VALID,18.5838,VALID,166,VALID,1.17827,
2003-08-19, 00:16:00,VALID,917.287,VALID,0,VALID,96.8848,VALID,-0.0169808,VALID,18.5935,VALID,175,VALID,0.976563,
2003-08-19, 00:17:00,VALID,917.304,VALID,0,VALID,97.0171,VALID,0,VALID,18.5995,VALID,174,VALID,0.564823,
2003-08-19, 00:18:00,VALID,917.295,VALID,0,VALID,97.1887,VALID,0,VALID,18.6099,VALID,175,VALID,0.577902,
2003-08-19, 00:19:00,VALID,917.304,VALID,0,VALID,97.3528,VALID,0.0169808,VALID,18.623,VALID,158,VALID,0.540665,
2003-08-19, 00:20:00,VALID,917.334,VALID,0,VALID,97.4532,VALID,-0.0169808,VALID,18.6198,VALID,142,VALID,1.29474,
2003-08-19, 00:21:00,VALID,917.326,VALID,0,VALID,97.5791,VALID,-0.0679233,VALID,18.6113,VALID,137,VALID,1.17504,
2003-08-19, 00:22:00,VALID,917.339,VALID,0,VALID,97.6198,VALID,-0.0509425,VALID,18.5847,VALID,135,VALID,1.27734,
2003-08-19, 00:23:00,VALID,917.34,VALID,0,VALID,97.7724,VALID,-0.0339617,VALID,18.5723,VALID,148,VALID,1.49013,
2003-08-19, 00:24:00,VALID,917.336,VALID,0,VALID,97.9466,VALID,-0.0509425,VALID,18.5691,VALID,143,VALID,1.41425,
2003-08-19, 00:25:00,VALID,917.316,VALID,0,VALID,98.089,VALID,-0.0849042,VALID,18.5559,VALID,153,VALID,1.29573,
2003-08-19, 00:26:00,VALID,917.312,VALID,0,VALID,98.2111,VALID,-0.0509425,VALID,18.5465,VALID,147,VALID,1.21326,
2003-08-19, 00:27:00,VALID,917.324,VALID,0,VALID,98.2874,VALID,-0.0509425,VALID,18.5236,VALID,154,VALID,1.12684,
2003-08-19, 00:28:00,VALID,917.309,VALID,0,VALID,98.3586,VALID,-0.0679233,VALID,18.5276,VALID,156,VALID,1.19032,
2003-08-19, 00:29:00,VALID,917.301,VALID,0,VALID,98.4642,VALID,-0.0679233,VALID,18.5107,VALID,163,VALID,0.959736,
2003-08-19, 00:30:00,VALID,917.31,VALID,0,VALID,98.5595,VALID,-0.0849042,VALID,18.5072,VALID,136,VALID,0.707137,
2003-08-19, 00:31:00,VALID,917.315,VALID,0,VALID,98.5621,VALID,-0.0679233,VALID,18.5072,VALID,168,VALID,1.08594,
2003-08-19, 00:32:00,VALID,917.326,VALID,0,VALID,98.5697,VALID,-0.0679233,VALID,18.5107,VALID,172,VALID,1.16451,
2003-08-19, 00:33:00,VALID,917.315,VALID,0,VALID,98.5532,VALID,-0.0509425,VALID,18.5109,VALID,165,VALID,1.15765,
2003-08-19, 00:34:00,VALID,917.311,VALID,0,VALID,98.59,VALID,-0.0169808,VALID,18.5013,VALID,170,VALID,1.0154,
2003-08-19, 00:35:00,VALID,917.322,VALID,0,VALID,98.6676,VALID,-0.0169808,VALID,18.5112,VALID,171,VALID,0.817057,
2003-08-19, 00:36:00,VALID,917.333,VALID,0,VALID,98.7299,VALID,-0.0339617,VALID,18.5075,VALID,163,VALID,1.11513,
2003-08-19, 00:37:00,VALID,917.33,VALID,0,VALID,98.6791,VALID,0,VALID,18.5045,VALID,170,VALID,1.25801,
2003-08-19, 00:38:00,VALID,917.343,VALID,0,VALID,98.585,VALID,-0.0339617,VALID,18.4916,VALID,167,VALID,1.12539,
2003-08-19, 00:39:00,VALID,917.323,VALID,0,VALID,98.4998,VALID,-0.0169808,VALID,18.4881,VALID,171,VALID,1.35246,
2003-08-19, 00:40:00,VALID,917.327,VALID,0,VALID,98.3853,VALID,-0.0849042,VALID,18.4819,VALID,169,VALID,1.05152,
2003-08-19, 00:41:00,VALID,917.333,VALID,0,VALID,98.3497,VALID,-0.0339617,VALID,18.4918,VALID,153,VALID,1.13772,
2003-08-19, 00:42:00,VALID,917.35,VALID,0,VALID,98.3751,VALID,-0.0679233,VALID,18.5079,VALID,139,VALID,0.366343,
2003-08-19, 00:43:00,VALID,917.349,VALID,0,VALID,98.3294,VALID,-0.0169808,VALID,18.5266,VALID,165,VALID,0.962582,
2003-08-19, 00:44:00,VALID,917.358,VALID,0,VALID,98.2493,VALID,-0.0169808,VALID,18.5301,VALID,155,VALID,0.916941,
2003-08-19, 00:45:00,VALID,917.373,VALID,0,VALID,98.192,VALID,-0.0339617,VALID,18.5199,VALID,155,VALID,0.778201,
2003-08-19, 00:46:00,VALID,917.388,VALID,0,VALID,98.1475,VALID,-0.0849042,VALID,18.5402,VALID,164,VALID,1.00574,
2003-08-19, 00:47:00,VALID,917.41,VALID,0,VALID,98.0611,VALID,-0.0339617,VALID,18.5301,VALID,152,VALID,0.968961,
2003-08-19, 00:48:00,VALID,917.423,VALID,0,VALID,98.0496,VALID,-0.0509425,VALID,18.5432,VALID,159,VALID,1.01585,
2003-08-19, 00:49:00,VALID,917.43,VALID,0,VALID,98.0318,VALID,-0.0339617,VALID,18.5395,VALID,144,VALID,0.91645,
2003-08-19, 00:50:00,VALID,917.441,VALID,0,VALID,97.9186,VALID,-0.0849042,VALID,18.5564,VALID,140,VALID,1.13181,
2003-08-19, 00:51:00,VALID,917.444,VALID,0,VALID,97.7393,VALID,-0.0339617,VALID,18.5432,VALID,133,VALID,1.31862,
2003-08-19, 00:52:00,VALID,917.439,VALID,0,VALID,97.5015,VALID,-0.0509425,VALID,18.5402,VALID,140,VALID,1.7021,
2003-08-19, 00:53:00,VALID,917.445,VALID,0,VALID,97.19,VALID,-0.0679233,VALID,18.5432,VALID,140,VALID,1.4308,
2003-08-19, 00:54:00,VALID,917.437,VALID,0,VALID,96.9319,VALID,-0.0339617,VALID,18.5661,VALID,142,VALID,1.66967,
2003-08-19, 00:55:00,VALID,917.429,VALID,0,VALID,96.5936,VALID,-0.0509425,VALID,18.5919,VALID,141,VALID,2.01494,
2003-08-19, 00:56:00,VALID,917.422,VALID,0,VALID,96.2859,VALID,-0.0169808,VALID,18.6076,VALID,144,VALID,2.30122,
2003-08-19, 00:57:00,VALID,917.424,VALID,0,VALID,96.0646,VALID,-0.0169808,VALID,18.6396,VALID,146,VALID,1.91386,
2003-08-19, 00:58:00,VALID,917.456,VALID,0,VALID,95.7938,VALID,-0.0509425,VALID,18.6595,VALID,157,VALID,2.14744,
2003-08-19, 00:59:00,VALID,917.491,VALID,0,VALID,95.5878,VALID,-0.0509425,VALID,18.6923,VALID,155,VALID,1.77578,
2003-08-19, 01:00:00,VALID,917.535,VALID,0,VALID,95.5738,VALID,-0.0509425,VALID,18.7243,VALID,196,VALID,0.896652,
2003-08-19, 01:01:00,VALID,917.569,VALID,0,VALID,95.617,VALID,-0.0339617,VALID,18.7499,VALID,196,VALID,0.7519,
2003-08-19, 01:02:00,VALID,917.604,VALID,0,VALID,95.6857,VALID,-0.0509425,VALID,18.7566,VALID,204,VALID,0.594866,
2003-08-19, 01:03:00,VALID,917.629,VALID,0,VALID,95.8116,VALID,-0.0509425,VALID,18.7497,VALID,146,VALID,0.412373,
2003-08-19, 01:04:00,VALID,917.635,VALID,0,VALID,95.7811,VALID,0,VALID,18.7658,VALID,148,VALID,1.01192,
2003-08-19, 01:05:00,VALID,917.632,VALID,0,VALID,95.8434,VALID,-0.0169808,VALID,18.743,VALID,109,VALID,0.887747,
2003-08-19, 01:06:00,VALID,917.647,VALID,0,VALID,96.0316,VALID,-0.0169808,VALID,18.7464,VALID,92,VALID,0.862805,
2003-08-19, 01:07:00,VALID,917.641,VALID,0,VALID,95.9858,VALID,-0.0169808,VALID,18.7236,VALID,113,VALID,0.863971,
2003-08-19, 01:08:00,VALID,917.651,VALID,0,VALID,96.0303,VALID,-0.0339617,VALID,18.6975,VALID,92,VALID,0.846495,
2003-08-19, 01:09:00,VALID,917.655,VALID,0,VALID,96.1409,VALID,0,VALID,18.7015,VALID,83,VALID,0.735754,
2003-08-19, 01:10:00,VALID,917.666,VALID,0,VALID,96.0239,VALID,0,VALID,18.7015,VALID,92,VALID,1.06033,
2003-08-19, 01:11:00,VALID,917.655,VALID,0,VALID,96.057,VALID,-0.0169808,VALID,18.701,VALID,86,VALID,1.08353,
2003-08-19, 01:12:00,VALID,917.648,VALID,0,VALID,96.0392,VALID,-0.101885,VALID,18.7308,VALID,83,VALID,1.26499,
2003-08-19, 01:13:00,VALID,917.639,VALID,0,VALID,96.0608,VALID,-0.0509425,VALID,18.7238,VALID,82,VALID,1.61431,
2003-08-19, 01:14:00,VALID,917.642,VALID,0,VALID,96.0023,VALID,-0.0679233,VALID,18.7271,VALID,74,VALID,1.45714,
2003-08-19, 01:15:00,VALID,917.647,VALID,0,VALID,96.1244,VALID,-0.0509425,VALID,18.7333,VALID,69,VALID,0.928686,
2003-08-19, 01:16:00,VALID,917.646,VALID,0,VALID,96.0672,VALID,0,VALID,18.7301,VALID,86,VALID,1.86282,
2003-08-19, 01:17:00,VALID,917.624,VALID,0,VALID,96.0761,VALID,-0.0169808,VALID,18.7204,VALID,86,VALID,1.76953,
2003-08-19, 01:18:00,VALID,917.607,VALID,0,VALID,96.2859,VALID,-0.0339617,VALID,18.7077,VALID,87,VALID,1.64021,
2003-08-19, 01:19:00,VALID,917.598,VALID,0,VALID,96.441,VALID,-0.0339617,VALID,18.6883,VALID,87,VALID,1.60797,
2003-08-19, 01:20:00,VALID,917.567,VALID,0,VALID,96.4983,VALID,-0.0339617,VALID,18.6747,VALID,80,VALID,1.65469,
2003-08-19, 01:21:00,VALID,917.555,VALID,0,VALID,96.6152,VALID,0,VALID,18.6652,VALID,66,VALID,1.68237,
2003-08-19, 01:22:00,VALID,917.53,VALID,0.2,VALID,96.7945,VALID,0,VALID,18.6585,VALID,61,VALID,1.60895,
2003-08-19, 01:23:00,VALID,917.529,VALID,0,VALID,96.8225,VALID,0,VALID,18.6359,VALID,100,VALID,1.4596,
2003-08-19, 01:24:00,VALID,917.533,VALID,0,VALID,96.9408,VALID,0,VALID,18.6064,VALID,91,VALID,1.28399,
2003-08-19, 01:25:00,VALID,917.526,VALID,0,VALID,97.1023,VALID,0,VALID,18.6002,VALID,96,VALID,1.24486,
2003-08-19, 01:26:00,VALID,917.527,VALID,0,VALID,97.2015,VALID,0.0169808,VALID,18.6009,VALID,57,VALID,0.889597,
2003-08-19, 01:27:00,VALID,917.525,VALID,0,VALID,97.3388,VALID,0.0169808,VALID,18.5972,VALID,57,VALID,0.998476,
2003-08-19, 01:28:00,VALID,917.522,VALID,0,VALID,97.5028,VALID,0.0169808,VALID,18.6099,VALID,41,VALID,1.70887,
2003-08-19, 01:29:00,VALID,917.517,VALID,0,VALID,97.5588,VALID,0,VALID,18.6071,VALID,55,VALID,1.45249,
2003-08-19, 01:30:00,VALID,917.521,VALID,0,VALID,97.5562,VALID,0.0169808,VALID,18.5776,VALID,52,VALID,1.49242,
2003-08-19, 01:31:00,VALID,917.521,VALID,0,VALID,97.5524,VALID,0.0169808,VALID,18.5679,VALID,76,VALID,1.44965,
2003-08-19, 01:32:00,VALID,917.508,VALID,0,VALID,97.6313,VALID,0,VALID,18.5584,VALID,70,VALID,1.4996,
2003-08-19, 01:33:00,VALID,917.499,VALID,0,VALID,97.5906,VALID,0.0169808,VALID,18.5388,VALID,81,VALID,1.51774,
2003-08-19, 01:34:00,VALID,917.468,VALID,0,VALID,97.6084,VALID,0,VALID,18.5294,VALID,131,VALID,1.10382,
2003-08-19, 01:35:00,VALID,917.448,VALID,0,VALID,97.5918,VALID,0,VALID,18.5232,VALID,133,VALID,1.66629,
2003-08-19, 01:36:00,VALID,917.417,VALID,0,VALID,97.6541,VALID,-0.0169808,VALID,18.5234,VALID,127,VALID,1.49299,
2003-08-19, 01:37:00,VALID,917.404,VALID,0,VALID,97.5651,VALID,0,VALID,18.5135,VALID,123,VALID,1.14063,
2003-08-19, 01:38:00,VALID,917.402,VALID,0,VALID,97.4189,VALID,-0.0169808,VALID,18.5102,VALID,122,VALID,0.939019,
2003-08-19, 01:39:00,VALID,917.394,VALID,0,VALID,97.3223,VALID,0,VALID,18.51,VALID,128,VALID,1.10177,
2003-08-19, 01:40:00,VALID,917.372,VALID,0,VALID,97.1112,VALID,0,VALID,18.5137,VALID,124,VALID,1.2488,
2003-08-19, 01:41:00,VALID,917.366,VALID,0,VALID,96.9497,VALID,0,VALID,18.5195,VALID,137,VALID,1.39355,
2003-08-19, 01:42:00,VALID,917.349,VALID,0,VALID,96.7246,VALID,0,VALID,18.5363,VALID,143,VALID,1.79107,
2003-08-19, 01:43:00,VALID,917.349,VALID,0,VALID,96.6814,VALID,0,VALID,18.5391,VALID,141,VALID,1.11465,
2003-08-19, 01:44:00,VALID,917.336,VALID,0,VALID,96.7195,VALID,0,VALID,18.5649,VALID,157,VALID,1.28192,
2003-08-19, 01:45:00,VALID,917.335,VALID,0,VALID,96.8581,VALID,0,VALID,18.5684,VALID,145,VALID,0.91174,
2003-08-19, 01:46:00,VALID,917.324,VALID,0,VALID,96.9916,VALID,0,VALID,18.5681,VALID,150,VALID,0.948808,
2003-08-19, 01:47:00,VALID,917.322,VALID,0,VALID,97.1315,VALID,0,VALID,18.5686,VALID,147,VALID,1.15604,
2003-08-19, 01:48:01,VALID,917.304,VALID,0,VALID,97.2625,VALID,-0.0169808,VALID,18.5455,VALID,155,VALID,1.31574,
2003-08-19, 01:49:00,VALID,917.314,VALID,0,VALID,97.3909,VALID,0,VALID,18.5296,VALID,152,VALID,1.08961,
2003-08-19, 01:50:00,VALID,917.31,VALID,0,VALID,97.5143,VALID,0.0169808,VALID,18.5425,VALID,180,VALID,0.910262,
2003-08-19, 01:51:00,VALID,917.314,VALID,0,VALID,97.3579,VALID,0.0169808,VALID,18.5257,VALID,172,VALID,1.17946,
2003-08-19, 01:52:00,VALID,917.31,VALID,0,VALID,97.4291,VALID,0.0169808,VALID,18.546,VALID,121,VALID,0.678385,
2003-08-19, 01:53:01,VALID,917.312,VALID,0,VALID,97.4748,VALID,0,VALID,18.5651,VALID,110,VALID,0.44972,
2003-08-19, 01:54:00,VALID,917.3,VALID,0,VALID,97.5054,VALID,0.0169808,VALID,18.5744,VALID,91,VALID,0.480574,
2003-08-19, 01:55:00,VALID,917.291,VALID,0,VALID,97.3413,VALID,0,VALID,18.5905,VALID,80,VALID,0.967105,
2003-08-19, 01:56:00,VALID,917.287,VALID,0,VALID,97.3566,VALID,0,VALID,18.6039,VALID,64,VALID,0.812946,
2003-08-19, 01:57:00,VALID,917.284,VALID,0,VALID,97.2854,VALID,0,VALID,18.6096,VALID,63,VALID,1.10296,
2003-08-19, 01:58:01,VALID,917.266,VALID,0,VALID,97.1875,VALID,0.0169808,VALID,18.6295,VALID,64,VALID,1.03883,
2003-08-19, 01:59:00,VALID,917.271,VALID,0,VALID,97.1811,VALID,0,VALID,18.6295,VALID,69,VALID,1.07899,
2003-08-19, 02:00:00,VALID,917.253,VALID,0,VALID,97.2307,VALID,-0.0169808,VALID,18.6392,VALID,57,VALID,1.16509,
2003-08-19, 02:01:00,VALID,917.232,VALID,0,VALID,97.3642,VALID,0,VALID,18.6394,VALID,47,VALID,1.13502,
2003-08-19, 02:02:00,VALID,917.217,VALID,0,VALID,97.2421,VALID,0,VALID,18.6198,VALID,73,VALID,1.27852,
2003-08-19, 02:03:00,VALID,917.216,VALID,0,VALID,97.2167,VALID,0,VALID,18.6103,VALID,90,VALID,1.31696,
2003-08-19, 02:04:00,VALID,917.199,VALID,0,VALID,97.3045,VALID,0,VALID,18.5806,VALID,85,VALID,1.21052,
2003-08-19, 02:05:00,VALID,917.182,VALID,0,VALID,97.4138,VALID,-0.0169808,VALID,18.5778,VALID,82,VALID,1.08281,
2003-08-19, 02:06:00,VALID,917.188,VALID,0,VALID,97.5321,VALID,-0.0169808,VALID,18.5612,VALID,90,VALID,0.875845,
2003-08-19, 02:07:01,VALID,917.164,VALID,0,VALID,97.5944,VALID,0.0339617,VALID,18.5681,VALID,90,VALID,0.755962,
2003-08-19, 02:08:00,VALID,917.151,VALID,0,VALID,97.6402,VALID,0,VALID,18.5522,VALID,105,VALID,0.569901,
2003-08-19, 02:09:01,VALID,917.132,VALID,0,VALID,97.6376,VALID,0,VALID,18.5388,VALID,98,VALID,0.709794,
2003-08-19, 02:10:00,VALID,917.111,VALID,0,VALID,97.6643,VALID,-0.0169808,VALID,18.5391,VALID,95,VALID,0.601103,
2003-08-19, 02:11:00,VALID,917.087,VALID,0,VALID,97.6262,VALID,-0.0169808,VALID,18.552,VALID,96,VALID,0.764147,
2003-08-19, 02:12:00,VALID,917.055,VALID,0,VALID,97.5766,VALID,0,VALID,18.5492,VALID,83,VALID,0.651195,
2003-08-19, 02:13:00,VALID,917.039,VALID,0,VALID,97.6325,VALID,0,VALID,18.5587,VALID,95,VALID,0.386285,
2003-08-19, 02:14:01,VALID,917.019,VALID,0,VALID,97.6033,VALID,-0.0169808,VALID,18.5589,VALID,99,VALID,0.432292,
2003-08-19, 02:15:00,VALID,917.008,VALID,0,VALID,97.6478,VALID,0,VALID,18.5654,VALID,113,VALID,0.184122,
2003-08-19, 02:16:01,VALID,916.988,VALID,0,VALID,97.4812,VALID,0,VALID,18.5651,VALID,111,VALID,0.698191,
2003-08-19, 02:17:00,VALID,916.976,VALID,0,VALID,97.3591,VALID,0,VALID,18.5587,VALID,112,VALID,0.711384,
2003-08-19, 02:18:00,VALID,916.958,VALID,0,VALID,97.2879,VALID,0,VALID,18.5351,VALID,130,VALID,0.650841,
2003-08-19, 02:19:01,VALID,916.944,VALID,0,VALID,97.2917,VALID,0,VALID,18.5485,VALID,137,VALID,0.535616,
2003-08-19, 02:20:00,VALID,916.931,VALID,0,VALID,97.2218,VALID,0,VALID,18.5515,VALID,131,VALID,0.536024,
2003-08-19, 02:21:00,VALID,916.915,VALID,0,VALID,97.2002,VALID,0.0509425,VALID,18.5478,VALID,143,VALID,0.700452,
2003-08-19, 02:22:00,VALID,916.885,VALID,0,VALID,97.2612,VALID,0.101885,VALID,18.5548,VALID,140,VALID,1.34976,
2003-08-19, 02:23:00,VALID,916.864,VALID,0,VALID,97.3731,VALID,0,VALID,18.555,VALID,141,VALID,1.46055,
2003-08-19, 02:24:00,VALID,916.834,VALID,0,VALID,97.5537,VALID,0.0169808,VALID,18.5384,VALID,137,VALID,1.64665,
2003-08-19, 02:25:00,VALID,916.811,VALID,0,VALID,97.6974,VALID,0.0339617,VALID,18.4959,VALID,141,VALID,1.58235,
2003-08-19, 02:26:01,VALID,916.784,VALID,0,VALID,97.8919,VALID,0.0339617,VALID,18.4899,VALID,136,VALID,1.76897,
2003-08-19, 02:27:00,VALID,916.753,VALID,0,VALID,98.0471,VALID,0.0509425,VALID,18.4641,VALID,139,VALID,1.6212,
2003-08-19, 02:28:01,VALID,916.735,VALID,0,VALID,98.1119,VALID,0.0339617,VALID,18.4281,VALID,141,VALID,2.17599,
2003-08-19, 02:29:00,VALID,916.706,VALID,0,VALID,98.2327,VALID,0.0169808,VALID,18.4224,VALID,142,VALID,1.83861,
2003-08-19, 02:30:01,VALID,916.703,VALID,0,VALID,98.3039,VALID,0.0339617,VALID,18.4092,VALID,146,VALID,2.16673,
2003-08-19, 02:31:00,VALID,916.689,VALID,0,VALID,98.4095,VALID,0.0339617,VALID,18.3998,VALID,150,VALID,1.41843,
2003-08-19, 02:32:00,VALID,916.707,VALID,0,VALID,98.3713,VALID,0,VALID,18.4,VALID,150,VALID,2.09101,
2003-08-19, 02:33:01,VALID,916.699,VALID,0,VALID,98.2454,VALID,0.0339617,VALID,18.3903,VALID,142,VALID,1.87155,
2003-08-19, 02:34:00,VALID,916.693,VALID,0,VALID,98.1335,VALID,0.0169808,VALID,18.4062,VALID,143,VALID,2.09852,
2003-08-19, 02:35:01,VALID,916.678,VALID,0,VALID,97.939,VALID,0.0339617,VALID,18.4092,VALID,139,VALID,1.874,
2003-08-19, 02:36:00,VALID,916.662,VALID,0,VALID,97.6681,VALID,0.0339617,VALID,18.4286,VALID,141,VALID,2.45756,
2003-08-19, 02:37:01,VALID,916.645,VALID,0,VALID,97.4545,VALID,0.0169808,VALID,18.4646,VALID,151,VALID,1.42578,
2003-08-19, 02:38:00,VALID,916.64,VALID,0,VALID,97.2383,VALID,0.0339617,VALID,18.4768,VALID,148,VALID,2.25179,
2003-08-19, 02:39:00,VALID,916.619,VALID,0,VALID,96.9662,VALID,0,VALID,18.51,VALID,148,VALID,2.27564,
2003-08-19, 02:40:01,VALID,916.611,VALID,0,VALID,96.7678,VALID,0,VALID,18.5317,VALID,145,VALID,2.06112,
2003-08-19, 02:41:00,VALID,916.599,VALID,0,VALID,96.5885,VALID,0.0169808,VALID,18.5674,VALID,142,VALID,2.59115,
2003-08-19, 02:42:00,VALID,916.585,VALID,0,VALID,96.4538,VALID,0,VALID,18.5907,VALID,147,VALID,2.48129,
2003-08-19, 02:43:00,VALID,916.556,VALID,0,VALID,96.3953,VALID,0,VALID,18.62,VALID,141,VALID,2.19091,
2003-08-19, 02:44:00,VALID,916.554,VALID,0,VALID,96.2846,VALID,0.0169808,VALID,18.6226,VALID,146,VALID,2.70957,
2003-08-19, 02:45:00,VALID,916.538,VALID,0,VALID,96.1943,VALID,0.0169808,VALID,18.6325,VALID,144,VALID,2.73103,
2003-08-19, 02:46:00,VALID,916.498,VALID,0,VALID,96.1702,VALID,0.0339617,VALID,18.6355,VALID,146,VALID,1.90456,
2003-08-19, 02:47:00,VALID,916.476,VALID,0,VALID,96.1206,VALID,0.0509425,VALID,18.6226,VALID,140,VALID,2.66049,
2003-08-19, 02:48:00,VALID,916.447,VALID,0,VALID,96.0723,VALID,0.0169808,VALID,18.6226,VALID,138,VALID,2.57622,
2003-08-19, 02:49:01,VALID,916.432,VALID,0,VALID,96.0697,VALID,0,VALID,18.6258,VALID,150,VALID,2.14433,
2003-08-19, 02:50:00,VALID,916.406,VALID,0,VALID,96.1384,VALID,0,VALID,18.629,VALID,144,VALID,1.74198,
2003-08-19, 02:51:01,VALID,916.395,VALID,0,VALID,96.16,VALID,0,VALID,18.6357,VALID,141,VALID,2.21856,
2003-08-19, 02:52:01,VALID,916.389,VALID,0,VALID,96.1066,VALID,0.0169808,VALID,18.6424,VALID,142,VALID,1.84628,
2003-08-19, 02:53:00,VALID,916.374,VALID,0,VALID,95.9286,VALID,0,VALID,18.6523,VALID,147,VALID,2.25211,
2003-08-19, 02:54:00,VALID,916.354,VALID,0,VALID,95.7836,VALID,0,VALID,18.6482,VALID,138,VALID,2.04044,
2003-08-19, 02:55:00,VALID,916.337,VALID,0,VALID,95.6056,VALID,-0.0169808,VALID,18.6708,VALID,144,VALID,1.97483,
2003-08-19, 02:56:01,VALID,916.325,VALID,0,VALID,95.6132,VALID,0.0169808,VALID,18.7072,VALID,130,VALID,1.88782,
2003-08-19, 02:57:00,VALID,916.327,VALID,0,VALID,95.4568,VALID,0,VALID,18.6968,VALID,135,VALID,1.81398,
2003-08-19, 02:58:01,VALID,916.33,VALID,0,VALID,95.411,VALID,0,VALID,18.7063,VALID,138,VALID,1.86061,
2003-08-19, 02:59:00,VALID,916.328,VALID,0,VALID,95.4492,VALID,0,VALID,18.7294,VALID,142,VALID,1.6529,
2003-08-19, 03:00:00,VALID,916.304,VALID,0,VALID,95.4644,VALID,0.0169808,VALID,18.7162,VALID,146,VALID,1.63842,
2003-08-19, 03:01:01,VALID,916.308,VALID,0,VALID,95.4263,VALID,0,VALID,18.7231,VALID,144,VALID,2.04458,
2003-08-19, 03:02:00,VALID,916.295,VALID,0,VALID,95.4784,VALID,0,VALID,18.7164,VALID,141,VALID,1.62001,
2003-08-19, 03:03:00,VALID,916.295,VALID,0,VALID,95.5852,VALID,0,VALID,18.7227,VALID,138,VALID,1.94346,
2003-08-19, 03:04:00,VALID,916.301,VALID,0,VALID,95.6081,VALID,0,VALID,18.7068,VALID,143,VALID,1.84595,
2003-08-19, 03:05:00,VALID,916.288,VALID,0,VALID,95.6361,VALID,-0.0169808,VALID,18.7104,VALID,144,VALID,2.19922,
2003-08-19, 03:06:00,VALID,916.276,VALID,0,VALID,95.7022,VALID,-0.101885,VALID,18.7216,VALID,157,VALID,1.84554,
2003-08-19, 03:07:00,VALID,916.266,VALID,0,VALID,95.7849,VALID,-0.0849042,VALID,18.7045,VALID,139,VALID,2.33066,
2003-08-19, 03:08:00,VALID,916.265,VALID,0,VALID,95.7556,VALID,-0.101885,VALID,18.7146,VALID,144,VALID,2.37768,
2003-08-19, 03:09:00,VALID,916.244,VALID,0,VALID,95.7912,VALID,-0.101885,VALID,18.734,VALID,132,VALID,1.92779,
2003-08-19, 03:10:01,VALID,916.234,VALID,0,VALID,95.8828,VALID,-0.0849042,VALID,18.7241,VALID,131,VALID,1.15522,
2003-08-19, 03:11:00,VALID,916.223,VALID,0,VALID,95.9527,VALID,-0.0679233,VALID,18.7112,VALID,115,VALID,1.86554,
2003-08-19, 03:12:01,VALID,916.186,VALID,0,VALID,95.9922,VALID,-0.101885,VALID,18.7045,VALID,130,VALID,1.2843,
2003-08-19, 03:13:00,VALID,916.176,VALID,0,VALID,95.9146,VALID,-0.0849042,VALID,18.7077,VALID,132,VALID,1.63327,
2003-08-19, 03:14:00,VALID,916.165,VALID,0,VALID,95.7111,VALID,-0.118866,VALID,18.7238,VALID,138,VALID,2.34291,
2003-08-19, 03:15:01,VALID,916.163,VALID,0,VALID,95.6183,VALID,-0.0509425,VALID,18.7561,VALID,133,VALID,2.12592,
2003-08-19, 03:16:00,VALID,916.137,VALID,0,VALID,95.5369,VALID,-0.0849042,VALID,18.782,VALID,99,VALID,1.70573,
2003-08-19, 03:17:01,VALID,916.123,VALID,0,VALID,95.4619,VALID,-0.101885,VALID,18.7986,VALID,126,VALID,1.84275,
2003-08-19, 03:18:00,VALID,916.102,VALID,0,VALID,95.5064,VALID,-0.0849042,VALID,18.7983,VALID,104,VALID,1.88661,
2003-08-19, 03:19:01,VALID,916.078,VALID,0,VALID,95.5751,VALID,-0.0849042,VALID,18.808,VALID,108,VALID,1.62068,
2003-08-19, 03:20:01,VALID,915.634,VALID,0,VALID,95.4123,VALID,-0.0679233,VALID,18.805,VALID,127,VALID,2.30379,
2003-08-19, 03:21:00,VALID,916.046,VALID,0,VALID,95.4314,VALID,0,VALID,18.7967,VALID,123,VALID,1.50841,
2003-08-19, 03:22:01,VALID,916.028,VALID,0,VALID,95.481,VALID,0.0169808,VALID,18.8135,VALID,89,VALID,1.39269,
2003-08-19, 03:23:00,VALID,916.016,VALID,0,VALID,95.5395,VALID,0,VALID,18.8101,VALID,108,VALID,1.54796,
2003-08-19, 03:24:01,VALID,916,VALID,0,VALID,95.6514,VALID,0,VALID,18.8135,VALID,94,VALID,0.830181,
2003-08-19, 03:25:01,VALID,915.989,VALID,0,VALID,95.6399,VALID,0,VALID,18.7939,VALID,103,VALID,0.989984,
2003-08-19, 03:26:00,VALID,915.985,VALID,0,VALID,95.6374,VALID,-0.0169808,VALID,18.7942,VALID,153,VALID,0.54668,
2003-08-19, 03:27:01,VALID,915.976,VALID,0,VALID,95.5573,VALID,0,VALID,18.8034,VALID,167,VALID,1.52545,
2003-08-19, 03:28:01,VALID,915.976,VALID,0,VALID,95.6463,VALID,0.0169808,VALID,18.8034,VALID,209,VALID,0.725718,
2003-08-19, 03:29:01,VALID,915.976,VALID,0,VALID,95.6005,VALID,0,VALID,18.7932,VALID,205,VALID,0.884152,
2003-08-19, 03:30:01,VALID,915.983,VALID,0,VALID,95.6374,VALID,0,VALID,18.7972,VALID,215,VALID,0.70397,
2003-08-19, 03:31:01,VALID,915.994,VALID,0,VALID,95.7417,VALID,0.0339617,VALID,18.7843,VALID,234,VALID,1.07689,
2003-08-19, 03:32:00,VALID,915.993,VALID,0,VALID,95.8052,VALID,0,VALID,18.7547,VALID,229,VALID,1.03639,
2003-08-19, 03:33:01,VALID,915.991,VALID,0,VALID,95.8955,VALID,-0.0169808,VALID,18.752,VALID,246,VALID,0.977515,
2003-08-19, 03:34:01,VALID,916.007,VALID,0,VALID,96.1435,VALID,0.0169808,VALID,18.7257,VALID,251,VALID,0.815257,
2003-08-19, 03:35:01,VALID,916.005,VALID,0,VALID,96.5758,VALID,0,VALID,18.7035,VALID,257,VALID,0.804054,
2003-08-19, 03:36:01,VALID,916.016,VALID,0,VALID,96.9192,VALID,0.0169808,VALID,18.6643,VALID,278,VALID,0.878906,
2003-08-19, 03:37:01,VALID,916.012,VALID,0,VALID,97.1989,VALID,0.0169808,VALID,18.6256,VALID,265,VALID,0.516927,